#timestamp,LO_Frequency,Hit 
1500152415.7,286047011.3,N
1500152435.6,286047013.9,N
1500152455.4,286047012.8,N
1500152475.2,286047016.9,N
1500152495.1,286047013.4,N
1500152496.0,286047013.4,N
1500152515.8,286047017.2,N
1500152535.6,286047015.1,N
1500152555.4,286047018.5,N
1500152575.3,286047020.0,N
1500152595.1,286047017.7,N
1500152615.8,286047017.4,N
1500152635.7,286047018.5,N
1500152655.5,286047014.4,N
1500152675.3,286047015.4,N
1500152695.2,286047014.8,N
1500152715.9,286047014.2,N
1500152735.7,286047014.5,N
1500152755.6,286047015.0,N
1500152775.4,286047011.0,N
1500152795.2,286047012.3,N
1500152815.1,286047010.9,N
1500152816.0,286047010.9,N
1500152835.8,286047009.8,N
1500152855.6,286047009.4,N
1500152875.4,286047011.2,N
1500152895.3,286047014.0,N
1500152915.1,286047013.1,N
1500152935.8,286047014.5,N
1500152955.7,286047014.5,N
1500152975.5,286047014.8,N
1500152995.3,286047014.1,N
1500153015.2,286047015.8,N
1500153035.9,286047016.5,N
1500153055.7,286047015.7,N
1500153075.6,286047018.6,N
1500153095.4,286047015.3,N
1500153115.2,286047010.9,N
1500153135.1,286047015.2,N
1500153136.0,286047015.2,N
1500153155.8,286047012.9,N
1500153175.6,286047013.8,N
1500153195.5,286047012.9,N
1500153215.3,286047012.5,N
1500153235.1,286047013.5,N
1500153255.8,286047015.2,N
1500153275.7,286047014.5,N
1500153295.5,286047016.9,N
1500153315.3,286047017.0,N
1500153335.2,286047014.6,N
1500153355.0,286047011.1,N
1500153355.9,286047011.1,N
1500153375.7,286047015.6,N
1500153395.6,286047013.4,N
1500153415.4,286047014.5,N
1500153435.2,286047016.8,N
1500153455.1,286047016.8,N
1500153456.0,286047016.8,N
1500153475.8,286047016.5,N
1500153495.6,286047014.2,N
1500153515.5,286047014.6,N
1500153535.3,286047014.8,N
1500153555.1,286047015.6,N
1500153575.9,286047014.6,N
1500153595.7,286047016.7,N
1500153615.5,286047017.0,N
1500153635.4,286047018.8,N
1500153655.2,286047012.8,N
1500153675.0,286047009.9,N
1500153675.9,286047009.9,N
1500153695.8,286047009.4,N
1500153715.6,286047009.4,N
1500153735.4,286047013.3,N
1500153755.3,286047011.8,N
1500153775.1,286047012.0,N
1500153776.0,286047012.0,N
1500153795.8,286047011.4,N
1500153815.7,286047014.4,N
1500153835.5,286047018.3,N
1500153855.3,286047016.3,N
1500153875.2,286047014.7,N
1500153895.9,286047014.7,N
1500153915.7,286047017.2,N
1500153935.5,286047018.0,N
1500153955.4,286047017.5,N
1500153975.2,286047018.5,N
1500153995.0,286047018.2,N
1500153995.9,286047018.2,N
1500154015.8,286047016.1,N
1500154035.6,286047016.8,N
1500154055.4,286047016.2,N
1500154075.3,286047018.2,N
1500154095.1,286047014.1,N
1500154115.8,286047018.5,N
1500154135.7,286047017.9,N
1500154155.5,286047015.8,N
1500154175.3,286047018.4,N
1500154195.2,286047015.9,N
1500154215.9,286047018.5,N
1500154235.7,286047014.7,N
1500154255.6,286047015.0,N
1500154275.4,286047015.4,N
1500154295.2,286047012.5,N
1500154315.1,286047015.0,N
1500154316.0,286047015.0,N
1500154335.8,286047014.3,N
1500154355.6,286047014.2,N
1500154375.5,286047015.8,N
1500154395.3,286047015.9,N
1500154415.1,286047018.3,N
1500154435.9,286047017.8,N
1500154455.7,286047017.6,N
1500154475.5,286047020.4,N
1500154495.3,286047017.7,N
1500154515.2,286047017.6,N
1500154535.0,286047017.3,N
1500154535.9,286047017.3,N
1500154555.7,286047020.4,N
1500154575.6,286047020.2,N
1500154595.4,286047022.0,N
1500154615.2,286047020.0,N
1500154635.1,286047022.7,N
1500154636.0,286047022.7,N
1500154655.8,286047021.4,N
1500154675.6,286047017.3,N
1500154695.5,286047020.6,N
1500154715.3,286047022.2,N
1500154735.1,286047019.5,N
1500154755.9,286047020.4,N
1500154775.7,286047020.4,N
1500154795.5,286047021.8,N
1500154815.4,286047020.0,N
1500154835.2,286047017.3,N
1500154855.0,286047021.6,N
1500154855.9,286047021.6,N
1500154875.8,286047021.4,N
1500154895.6,286047019.3,N
1500154915.4,286047019.8,N
1500154935.2,286047021.8,N
1500154955.1,286047020.8,N
1500154956.0,286047020.8,N
1500154975.8,286047019.6,N
1500154995.6,286047019.4,N
1500155015.5,286047022.0,N
1500155035.3,286047021.8,N
1500155055.1,286047020.9,N
1500155075.9,286047020.6,N
1500155095.7,286047020.7,N
1500155115.5,286047020.9,N
1500155135.4,286047022.9,N
1500155155.2,286047022.8,N
1500155175.0,286047022.6,N
1500155175.9,286047022.6,N
1500155195.8,286047024.6,N
1500155215.6,286047025.2,N
1500155235.4,286047022.4,N
1500155255.3,286047023.3,N
1500155275.1,286047022.1,N
1500155276.0,286047022.1,N
1500155295.8,286047026.7,N
1500155315.7,286047026.8,N
1500155335.5,286047026.5,N
1500155355.3,286047025.0,N
1500155375.1,286047024.4,N
1500155395.9,286047024.9,N
1500155415.7,286047024.3,N
1500155435.5,286047024.9,N
1500155455.4,286047024.7,N
1500155475.2,286047025.1,N
1500155495.0,286047024.4,N
1500155495.9,286047024.4,N
1500155515.8,286047024.6,N
1500155535.6,286047022.1,N
1500155555.4,286047022.6,N
1500155575.3,286047024.9,N
1500155595.1,286047024.5,N
1500155596.0,286047024.5,N
1500155615.8,286047024.4,N
1500155635.7,286047023.3,N
1500155655.5,286047022.3,N
1500155675.3,286047022.1,N
1500155695.2,286047022.3,N
1500155715.9,286047028.0,N
1500155735.7,286047025.9,N
1500155755.6,286047024.5,N
1500155775.4,286047025.1,N
1500155795.2,286047025.0,N
1500155815.0,286047022.9,N
1500155816.0,286047022.9,N
1500155835.8,286047024.4,N
1500155855.6,286047028.1,N
1500155875.4,286047025.0,N
1500155895.3,286047024.3,N
1500155915.1,286047026.8,N
1500155935.8,286047025.9,N
1500155955.7,286047025.6,N
1500155975.5,286047025.9,N
1500155995.3,286047027.4,N
